Regional Weather Roundup
Issued by NWS

Home | Current Version | Previous Version | Text Only | Print | Product List | Glossary On
Versions: 1 2 3 4 5 6 7 8 9 10 11 12 13 14 15 16 17 18 19 20 21 22 23 24 25 26 27 28 29 30 31 32 33 34 35 36 37 38 39 40 41 42 43 44 45 46 47 48 49 50
000
ASUS43 KMPX 211001
RWRMN
WEATHER ROUNDUP FOR MINNESOTA
NATIONAL WEATHER SERVICE TWIN CITIES/CHANHASSEN MN
400 AM CST SUN DEC 21 2014


NOTE: "FAIR" INDICATES FEW OR NO CLOUDS BELOW 12,000 FEET WITH NO
SIGNIFICANT WEATHER AND/OR OBSTRUCTIONS TO VISIBILITY. N/A MEANS
CURRENT SKY AND/OR WEATHER CONDITIONS ARE NOT AVAILABLE.

MNZ060>063-068>070-211100-
   Twin Cities Metro

CITY           SKY/WX    TMP DP  RH WIND       PRES   REMARKS
TWIN CITIES    CLOUDY    32  29  88 SE9       29.98F FOG     WCI  24
ST PAUL        CLOUDY    32  30  92 SE8       30.00F WCI  25
CRYSTAL        CLOUDY    33  29  85 SE9       29.96F FOG     WCI  25
BLAINE         CLOUDY    34  34 100 SE9       29.97F FOG     WCI  26
LAKEVILLE      CLOUDY    30  30 100 SE8       29.97F FOG     WCI  23
EDEN PRAIRIE   CLOUDY    32  30  92 SE10      29.96F FOG     WCI  24
SOUTH ST PAUL  CLOUDY    32  31  94 SE6       29.99F FOG     WCI  27
LAKE ELMO      CLOUDY    32  32 100 SE7       30.00F FOG     WCI  26
$$
MNZ001>005-007-008-013>017-022>024-027-028-211100-
   Northwest Minnesota

CITY           SKY/WX    TMP DP  RH WIND       PRES   REMARKS
BEMIDJI        CLOUDY    28  27  97 S12       29.82F FOG     WCI  18
HALLOCK        LGT SNOW  30  30 100 CALM      29.74F
ROSEAU         LGT SNOW  30  27  86 S10       29.79F WCI  21
WARROAD        LGT SNOW  30  27  86 S6        29.81F WCI  24
THIEF RVR FALL CLOUDY    30  28  93 S14       29.79F WCI  20
CROOKSTON      CLOUDY    30  30 100 S16       29.80F FOG     WCI  19
FOSSTON        CLOUDY    27  27 100 S14G23    29.81F WCI  15
DETROIT LAKES  CLOUDY    30  30 100 S13       29.83F FOG     WCI  20
MOORHEAD       CLOUDY    32  32 100 S14G21    29.82F FOG     WCI  22
PARK RAPIDS    CLOUDY    30  28  92 S15       29.84F FOG     WCI  19
MAHNOMEN       CLOUDY    29  28  94 S14G20    29.82F WCI  18
$$
MNZ006-009>011-018-025>026-211100-
   North Central Minnesota

CITY           SKY/WX    TMP DP  RH WIND       PRES   REMARKS
BAUDETTE       CLOUDY    29  26  89 S8        29.82F WCI  21
FLAG ISLAND    CLOUDY    28  27  93 SE21      29.80F FOG     WCI  15
INTL FALLS     LGT SNOW  28  26  92 SE7       29.86F VSB 1   WCI  21
WASKISH        CLOUDY    28  27  93 S8        29.83F WCI  20
BIG FORK       CLOUDY    28  27  93 S12G20    29.87F FOG     WCI  18
LONGVILLE      CLOUDY    28  27  93 S13       29.87F FOG     WCI  18
GRAND RAPIDS   CLOUDY    28  25  86 S14G20    29.89F WCI  17
CRANE LAKE     CLOUDY    28  27  93 S6        29.93F FOG     WCI  22
ORR            CLOUDY    27  25  93 S10       29.88F FOG     WCI  17
COOK           CLOUDY    28  27  93 S7        29.91F FOG     WCI  21
WALKER         CLOUDY    28  27  96 S10       29.86F FOG     WCI  18
$$
MNZ012-019>021-037-211100-
   Northeast Minnesota

CITY           SKY/WX    TMP DP  RH WIND       PRES   REMARKS
DULUTH         CLOUDY    29  25  85 S17       29.95F WCI  17
ELY            CLOUDY    28  27  93 S7        29.93F WCI  21
HIBBING        CLOUDY    29  25  85 S9G17     29.92F WCI  20
EVELETH        CLOUDY    30  30 100 S9        29.93F FOG     WCI  22
DULUTH HARBOR  CLOUDY    34  28  80 S9        30.01F WCI  26
TWO HARBORS    CLOUDY    34  28  80 S7        29.97F WCI  28
SILVER BAY     CLOUDY    32  28  86 S8        29.97F WCI  25
GRAND MARAIS     N/A     34  28  79 S16       30.03F WCI  24
G MARAIS ARPRT CLOUDY    27  21  80 S8        29.97F WCI  18
$$
MNZ029>031-032-039>041-046>048-054>057-064-211100-
   West Central Minnesota

CITY           SKY/WX    TMP DP  RH WIND       PRES   REMARKS
FERGUS FALLS   CLOUDY    30  28  93 S17       29.87F FOG     WCI  18
WHEATON        CLOUDY    28  27  93 S9        29.86F FOG     WCI  20
MORRIS         CLOUDY    30  30 100 S18       29.84F FOG     WCI  18
ALEXANDRIA     CLOUDY    30  28  92 S18       29.87F FOG     WCI  18
ELBOW LAKE     CLOUDY    30  29  98 S18       29.84F FOG     WCI  17
WADENA         CLOUDY    28  28 100 S12G20    29.84F FOG     WCI  18
GLENWOOD       CLOUDY    30  28  93 S13       29.88F FOG     WCI  20
APPLETON       CLOUDY    34  30  86 S6        29.87F WCI  29
BENSON         CLOUDY    32  28  86 S9        29.88F WCI  24
ORTONVILLE     CLOUDY    30  27  86 S9        29.84F FOG     WCI  22
MADISON        MOCLDY    36  34  93 S8        29.87F FOG
WILLMAR        CLOUDY    32  30  93 S7G17     29.90F FOG     WCI  26
$$
MNZ033>034-036-042>043-049>051-058-059-211100-
   Central Minnesota

CITY           SKY/WX    TMP DP  RH WIND       PRES   REMARKS
ST CLOUD       CLOUDY    32  29  88 SE15      29.92F FOG     WCI  22
SAUK CENTRE    CLOUDY    30  29  96 S14       29.90S FOG     WCI  20
PAYNESVILLE    CLOUDY    29  29 100 SE10G17   29.90F FOG     WCI  19
AITKIN         CLOUDY    32  27  80 S10       29.90F HAZE    WCI  24
PINE RIVER     CLOUDY    28  28 100 S10G18    29.91F FOG     WCI  19
BRAINERD       CLOUDY    29  28  96 S12G21    29.90F FOG     WCI  19
STAPLES        CLOUDY    28  28 100 S10G18    29.87F FOG     WCI  19
LONG PRAIRIE   CLOUDY    30  30 100 SE13      29.89F FOG     WCI  20
LITTLE FALLS   CLOUDY    30  28  93 SE10G16   29.91F FOG     WCI  21
LITCHFIELD     CLOUDY    34  34 100 SE6       29.91F FOG     WCI  29
BUFFALO        CLOUDY    32  30  91 SE8       29.95F FOG     WCI  25
MAPLE LAKE     CLOUDY    32  32  99 SE9       29.94F FOG     WCI  24
$$
MNZ037-044-045-052-053-211100-
   East Central Minnesota

CITY           SKY/WX    TMP DP  RH WIND       PRES   REMARKS
PRINCETON      CLOUDY    32  28  86 SE8       29.95F WCI  25
MORA           CLOUDY    32  28  86 SE6       29.98F WCI  26
CAMBRIDGE      CLOUDY    34  25  69 SE7       29.95F WCI  28
RUSH CITY      CLOUDY    31  28  88 SE8       29.98F WCI  24
MOOSE LAKE     CLOUDY    30  28  93 S6        29.94F WCI  24
HINCKLEY       CLOUDY    32  30  93 SE7       29.97F WCI  26
CLOQUET        CLOUDY    28  27  93 S8        29.95F FOG     WCI  20
MCGREGOR       CLOUDY    30  28  93 S12       29.92F WCI  21
$$
MNZ071>073-080-081-089-090-097-098-211100-
   Southwest Minnesota

CITY           SKY/WX    TMP DP  RH WIND       PRES   REMARKS
MONTEVIDEO     CLOUDY    30  30 100 SW9       29.89F FOG     WCI  22
GRANITE FALLS  CLOUDY    32  30  94 SE10      29.89F FOG     WCI  23
CANBY          CLOUDY    32  31  95 S6        29.87F FOG     WCI  26
MARSHALL       CLOUDY    30  27  86 S14       29.86F WCI  20
REDWOOD FALLS  CLOUDY    32  30  92 S15       29.90F WCI  22
OLIVIA         CLOUDY    32  32 100 S15       29.88F WCI  22
PIPESTONE      SNOW      30  30 100 S5        29.83F VSB 1/4 WCI  25
WINDOM         CLOUDY    30  30 100 S9        29.89F FOG     WCI  22
WORTHINGTON    CLOUDY    30  28  93 S8        29.89F VSB 1/4 WCI  23
JACKSON        CLOUDY    32  32 100 S12       29.91F FOG     WCI  23
TRACY          CLOUDY    32  31  96 S8        29.87F FOG     WCI  25
SLAYTON        FOG       30  30 100 S6        29.87F VSB 3/4 WCI  24
$$
MNZ065>067-074>077-082>085-091>093-211100-
   South Central Minnesota

CITY           SKY/WX    TMP DP  RH WIND       PRES   REMARKS
MANKATO        CLOUDY    34  28  80 S10       29.95F WCI  26
NEW ULM        CLOUDY    32  32 100 S12       29.93F FOG     WCI  23
ST JAMES       CLOUDY    34  32  93 S13       29.93F FOG     WCI  25
FAIRMONT       CLOUDY    32  28  86 S12       29.93F VSB 1/2 WCI  23
GLENCOE        CLOUDY    33  32  96 SE8       29.93F FOG     WCI  26
FARIBAULT      CLOUDY    34  30  86 SE10      29.98F FOG     WCI  26
OWATONNA       CLOUDY    34  30  86 SE9       29.97F FOG     WCI  26
WASECA         CLOUDY    32  30  93 SE8       29.97F FOG     WCI  25
ALBERT LEA     FOG       34  34 100 S12       29.97F VSB 1/2 WCI  25
$$
MNZ078>079-086>088-094>096-211100-
   Southeast Minnesota

CITY           SKY/WX    TMP DP  RH WIND       PRES   REMARKS
ROCHESTER      CLOUDY    31  30  96 S13       30.00F FOG     WCI  21
RED WING       CLOUDY    34  30  86 SE6       30.02F FOG     WCI  29
STANTON        CLOUDY    34  31  89 S8        29.98F FOG     WCI  27
DODGE CENTER   CLOUDY    32  32 100 S10       29.98F FOG     WCI  24
WINONA         CLOUDY    34  32  93 SE6       30.07F FOG     WCI  29
AUSTIN         CLOUDY    32  32 100 S7        29.99F FOG     WCI  26
PRESTON        FOG       31  30  99 SE7       30.02F VSB 1   WCI  24
$$
ABBREVIATIONS USED IN REMARKS
   TC - TEMPERATURES IN CELSIUS
  WCI - WIND CHILL INDEX
   HX - HEAT INDEX
  VSB - VISIBILITY
$$


USA.gov is the U.S. government's official web portal to all federal, state and local government web resources and services.